Regional Weather Roundup
Issued by NWS Midland/Odessa, TX

Home | Current Version | Previous Version | Text Only | Print | Product List | Glossary On
Versions: 1 2 3 4 5 6 7 8 9 10 11 12 13 14 15 16 17 18 19 20 21 22 23 24 25 26 27 28 29 30 31 32 33 34 35 36 37 38 39 40 41 42 43 44 45 46 47 48 49 50
000
ASUS44 KMAF 272110
RWRMAF
MIDLAND AREA WEATHER ROUNDUP
NATIONAL WEATHER SERVICE MIDLAND TX
400 PM CDT SUN MAY 27 2018

...IN SOUTHWEST TEXAS AND SOUTHEAST NEW MEXICO...

CITY           SKY/WX    TMP DP  RH WIND       PRES   REMARKS
ALPINE         SUNNY     98  32  10 SW12G24   29.95F
ANDREWS        FAIR     103  37  10 S15G22    29.80F
ARTESIA        SUNNY     99  32   9 SW20G26   29.80F
BIG SPRING     SUNNY    102  43  13 S10G23    29.80F
CARLSBAD       MOSUNNY  100  35  10 MISG      29.76F
DRYDEN           N/A    107  47  13 E20       29.73F HX 103
FORT STOCKTON  SUNNY    103  35   9 S12G23    29.78F
GUAD PASS      SUNNY     94  24   8 SW21G39   29.98F
HOBBS          SUNNY    100  34  10 S15G25    29.80F
LAMESA         FAIR     104  36   9 SE20G35   29.80F
MARFA          SUNNY     96  31  10 MISG      29.94F
MIDLAND AIRPK    N/A    106  34   8 SE13G23   29.79F
MIDLAND INTL   SUNNY    105  37   9 S18G26    29.78F
ODESSA           N/A    N/A N/A N/A MISG      29.79F
PECOS          SUNNY    105  39  10 SW6G16    29.72F
PRESIDIO       FAIR     104  34   9 SW7       29.78F
SEMINOLE       SUNNY    101  37  11 S14G24    29.82S
SNYDER         SUNNY     99  52  20 SE16G23   29.81S
WINK           SUNNY    106  39  10 MISG      29.74F HX 100
$$
...OTHER STATIONS IN TEXAS...

CITY           SKY/WX    TMP DP  RH WIND       PRES   REMARKS
ABILENE        SUNNY     98  59  27 S13G21    29.79F
AMARILLO       MOSUNNY   91  55  29 SE25G33   29.84F
AUSTIN         MOSUNNY   96  68  39 SE7       29.78F HX 101
BROWNSVILLE    FAIR      96  70  42 E16G22    29.77F HX 102
CORPUS CHRISTI MOSUNNY   92  70  48 E12       29.78F
DALLAS FTW     PTSUNNY   94  67  41 VRB3      29.78F
DEL RIO        SUNNY    104  57  21 SE14G26   29.71F HX 103
EL PASO        MOSUNNY   95  11   4 SW10G21   29.87F
HOUSTON INT    PTSUNNY   90  73  57 VRB7      29.79F
LUBBOCK        MOSUNNY  101  37  11 S23G33    29.81F
SAN ANGELO     SUNNY    102  57  22 S7        29.77F HX 101
SAN ANTONIO    MOSUNNY   96  64  34 SE14      29.80F
WACO           MOSUNNY   96  66  37 S6        29.79F
WICHITA FALLS  MOSUNNY   95  58  28 SE15      29.86F
$$
...OTHER LOCATIONS IN NEW MEXICO...

CITY           SKY/WX    TMP DP  RH WIND       PRES   REMARKS
ALAMOGORDO     SUNNY     93  16   6 SW13G22   29.89F
ALBUQUERQUE    SUNNY     85   9   5 S15G25    29.93F
CANNON AFB     SUNNY     95  34  12 S20G26    29.87S
CLOVIS         SUNNY     95  41  15 S22G32    29.86S
HOLLOMAN AFB   SUNNY     95   2   3 S15G25    29.89
ROSWELL        SUNNY    102  24   6 S25G36    29.79F
RUIDOSO        SUNNY     81   7   6 S12G24    30.08S
SANTA FE       SUNNY     81   7   6 VRB5G17   29.98F
TRUTH OR CONSE SUNNY     93 -11   2 S21G32    29.87F
TUCUMCARI      SUNNY     98  38  12 S15G25    29.80F
$$



USA.gov is the U.S. government's official web portal to all federal, state and local government web resources and services.